Crane Lake, MN

8:41 PM CST on November 21, 2017 (GMT -0600)
Crane Lake

Weather History for KCDD - March, 2013

Change the Weather History Date:

Friday, March 15, 2013

  Actual Average Record
Temperature  
Mean Temperature 17 °F -  
Max Temperature 26 °F 31 °F 64 °F (2015)
Min Temperature 8 °F 8 °F -14 °F (2014)
Degree Days  
Heating Degree Days 48    
Moisture  
Dew Point 6 °F    
Average Humidity 69    
Maximum Humidity 93    
Minimum Humidity 41    
Precipitation  
Precipitation 0.00 in - - ()
Sea Level Pressure  
Sea Level Pressure 30.06 in    
Wind  
Wind Speed 5 mph (North)    
Max Wind Speed 8 mph    
Max Gust Speed 16 mph    
Visibility 8 miles    
Events Snow    
Averages and records for this station are not official NWS values.
T = Trace of Precipitation, MM = Missing Value Source: NWS Daily Summary

Daily Weather History Graph

Daily Weather History Graph

Search for Another Location

Airport or City:

Trip Planner

Search our weather history database for the weather conditions in past years. The results will help you decide how hot, cold, wet, or windy it might be!

Date:

Astronomy

Mar. 15, 2013 Rise Set
Actual Time 7:22 AM CDT 7:15 PM CDT
Civil Twilight 6:51 AM CDT 7:46 PM CDT
Nautical Twilight 6:15 AM CDT 8:23 PM CDT
Astronomical Twilight 5:37 AM CDT 9:00 PM CDT
Moon 8:52 AM CDT (3/15) 11:53 PM CDT (3/15)
Length of Visible Light 12h 55m
Length of Day
11h 53m
Waxing Crescent, 15% of the Moon is Illuminated
Mar 15
Waxing Crescent
Mar 19
First Quarter
Mar 27
Full
Apr 2
Last Quarter
Apr 10
New

Hourly Weather History & Observations

Time (CDT) Temp. Windchill Dew Point Humidity Pressure Visibility Wind Dir Wind Speed Gust Speed Precip Events Conditions
12:08 AM 26.6 °F 22.6 °F 23.0 °F 86% 30.02 in 10.0 mi NNW 3.5 mph - N/A   Overcast
12:28 AM 26.6 °F 20.0 °F 23.0 °F 86% 30.02 in 10.0 mi NNW 5.8 mph - N/A   Overcast
12:48 AM 26.6 °F 20.0 °F 23.0 °F 86% 30.01 in 10.0 mi North 5.8 mph - N/A   Overcast
1:08 AM 24.8 °F 16.9 °F 21.2 °F 86% 30.01 in 10.0 mi North 6.9 mph - N/A   Overcast
1:28 AM 24.8 °F 16.9 °F 21.2 °F 86% 30.01 in 10.0 mi NNW 6.9 mph 16.1 mph N/A   Overcast
1:48 AM 23.0 °F 14.7 °F 19.4 °F 86% 30.02 in 10.0 mi NNW 6.9 mph - N/A   Mostly Cloudy
2:08 AM 23.0 °F 17.0 °F 19.4 °F 86% 30.03 in 10.0 mi NNW 4.6 mph - N/A   Scattered Clouds
2:28 AM 21.2 °F 14.9 °F 19.4 °F 93% 30.03 in 10.0 mi NNW 4.6 mph - N/A   Scattered Clouds
2:48 AM 21.2 °F 13.6 °F 17.6 °F 86% 30.03 in 10.0 mi NNW 5.8 mph - N/A   Clear
3:09 AM 21.2 °F 14.9 °F 17.6 °F 86% 30.04 in 10.0 mi North 4.6 mph - N/A   Scattered Clouds
3:28 AM 19.4 °F 10.4 °F 17.6 °F 93% 30.04 in 10.0 mi NNW 6.9 mph - N/A   Scattered Clouds
4:08 AM 17.6 °F 10.7 °F 15.8 °F 93% 30.04 in 10.0 mi North 4.6 mph - N/A   Scattered Clouds
4:28 AM 17.6 °F 10.7 °F 14.0 °F 86% 30.05 in 10.0 mi North 4.6 mph - N/A   Mostly Cloudy
4:48 AM 15.8 °F 6.1 °F 12.2 °F 86% 30.06 in 10.0 mi North 6.9 mph - N/A   Scattered Clouds
5:08 AM 15.8 °F 7.2 °F 10.4 °F 79% 30.06 in 10.0 mi North 5.8 mph - N/A   Scattered Clouds
5:28 AM 15.8 °F 8.6 °F 10.4 °F 79% 30.07 in 10.0 mi North 4.6 mph - N/A   Mostly Cloudy
5:48 AM 15.8 °F 8.6 °F 10.4 °F 79% 30.08 in 10.0 mi North 4.6 mph - N/A   Overcast
6:08 AM 15.8 °F 7.2 °F 10.4 °F 79% 30.08 in 10.0 mi North 5.8 mph - N/A   Overcast
6:28 AM 14.0 °F 8.2 °F 10.4 °F 86% 30.08 in 10.0 mi North 3.5 mph - N/A   Overcast
6:48 AM 12.2 °F - 8.6 °F 85% 30.08 in 10.0 mi Calm Calm - N/A   Scattered Clouds
7:08 AM 12.2 °F 4.3 °F 8.6 °F 85% 30.09 in 10.0 mi NNE 4.6 mph - N/A   Scattered Clouds
7:28 AM 10.4 °F 2.2 °F 8.6 °F 92% 30.10 in 7.0 mi North 4.6 mph - N/A Snow Light Snow
7:48 AM 10.4 °F 0.8 °F 8.6 °F 92% 30.11 in 10.0 mi North 5.8 mph - N/A   Overcast
8:19 AM 10.4 °F 4.0 °F 8.6 °F 92% 30.11 in 4.0 mi North 3.5 mph - N/A Snow Light Snow
8:28 AM 12.2 °F 6.1 °F 8.6 °F 85% 30.11 in 5.0 mi North 3.5 mph - N/A Snow Light Snow
8:48 AM 12.2 °F 4.3 °F 8.6 °F 85% 30.11 in 10.0 mi North 4.6 mph - N/A   Scattered Clouds
9:08 AM 12.2 °F 6.1 °F 6.8 °F 79% 30.10 in 10.0 mi North 3.5 mph - N/A   Clear
9:28 AM 12.2 °F 0.7 °F 8.6 °F 85% 30.10 in 10.0 mi North 8.1 mph - N/A   Clear
9:48 AM 14.0 °F 5.1 °F 8.6 °F 79% 30.10 in 10.0 mi North 5.8 mph - N/A   Clear
10:09 AM 15.8 °F 6.1 °F 8.6 °F 73% 30.09 in 10.0 mi North 6.9 mph - N/A   Clear
10:28 AM 15.8 °F 7.2 °F 6.8 °F 68% 30.09 in 10.0 mi North 5.8 mph - N/A   Scattered Clouds
10:48 AM 15.8 °F 7.2 °F 5.0 °F 62% 30.09 in 10.0 mi North 5.8 mph - N/A   Scattered Clouds
11:08 AM 17.6 °F 9.3 °F 3.2 °F 53% 30.09 in 10.0 mi North 5.8 mph - N/A   Mostly Cloudy
11:28 AM 17.6 °F 10.7 °F 3.2 °F 53% 30.09 in 10.0 mi North 4.6 mph - N/A   Mostly Cloudy
11:48 AM 17.6 °F 9.3 °F 5.0 °F 58% 30.09 in 10.0 mi North 5.8 mph - N/A   Scattered Clouds
12:08 PM 17.6 °F 9.3 °F 3.2 °F 53% 30.08 in 10.0 mi North 5.8 mph - N/A   Clear
12:28 PM 19.4 °F 10.4 °F 3.2 °F 49% 30.08 in 10.0 mi North 6.9 mph - N/A   Clear
12:48 PM 19.4 °F 14.3 °F 1.4 °F 46% 30.07 in 10.0 mi North 3.5 mph - N/A   Clear
1:09 PM 19.4 °F 14.3 °F 1.4 °F 46% 30.07 in 10.0 mi NE 3.5 mph - N/A   Clear
1:28 PM 19.4 °F 11.5 °F 1.4 °F 46% 30.06 in 10.0 mi North 5.8 mph - N/A   Clear
1:48 PM 19.4 °F 12.8 °F 1.4 °F 46% 30.06 in 10.0 mi North 4.6 mph - N/A   Scattered Clouds
2:08 PM 19.4 °F 11.5 °F 1.4 °F 46% 30.05 in 10.0 mi NW 5.8 mph - N/A   Scattered Clouds
2:28 PM 17.6 °F 12.3 °F -2.2 °F 42% 30.05 in 10.0 mi NNW 3.5 mph - N/A   Clear
2:48 PM 17.6 °F 10.7 °F -2.2 °F 42% 30.04 in 10.0 mi North 4.6 mph - N/A   Clear
3:08 PM 17.6 °F 8.2 °F -0.4 °F 45% 30.03 in 10.0 mi North 6.9 mph - N/A   Scattered Clouds
3:28 PM 17.6 °F 8.2 °F -2.2 °F 42% 30.03 in 10.0 mi North 6.9 mph - N/A   Scattered Clouds
3:48 PM 17.6 °F 8.2 °F -2.2 °F 42% 30.03 in 10.0 mi North 6.9 mph - N/A   Scattered Clouds
4:08 PM 17.6 °F 9.3 °F -2.2 °F 42% 30.03 in 10.0 mi NNW 5.8 mph - N/A   Mostly Cloudy
4:28 PM 17.6 °F 8.2 °F -2.2 °F 42% 30.03 in 10.0 mi North 6.9 mph - N/A   Mostly Cloudy
4:48 PM 15.8 °F 7.2 °F -2.2 °F 45% 30.03 in 10.0 mi North 5.8 mph - N/A   Mostly Cloudy
5:08 PM 15.8 °F 8.6 °F -2.2 °F 45% 30.03 in 10.0 mi North 4.6 mph - N/A   Overcast
5:28 PM 15.8 °F 10.2 °F -4.0 °F 41% 30.03 in 10.0 mi North 3.5 mph - N/A   Overcast
5:48 PM 15.8 °F 8.6 °F -4.0 °F 41% 30.03 in 10.0 mi North 4.6 mph - N/A   Overcast
6:08 PM 15.8 °F 7.2 °F -2.2 °F 45% 30.04 in 10.0 mi NNW 5.8 mph - N/A   Overcast
6:28 PM 14.0 °F 6.5 °F -2.2 °F 49% 30.04 in 10.0 mi NNW 4.6 mph - N/A   Overcast
6:48 PM 12.2 °F 4.3 °F -2.2 °F 53% 30.05 in 7.0 mi North 4.6 mph - N/A Snow Light Snow
7:09 PM 12.2 °F - -0.4 °F 57% 30.05 in 3.0 mi Calm Calm - N/A Snow Light Snow
7:28 PM 12.2 °F - 1.4 °F 62% 30.05 in 2.5 mi Calm Calm - N/A Snow Light Snow
7:48 PM 10.4 °F - 1.4 °F 67% 30.05 in 2.0 mi Calm Calm - N/A Snow Light Snow
8:08 PM 10.4 °F 4.0 °F 1.4 °F 67% 30.05 in 2.0 mi North 3.5 mph - N/A Snow Light Snow
8:28 PM 10.4 °F - 1.4 °F 67% 30.05 in 3.0 mi Calm Calm - N/A Snow Light Snow
8:48 PM 10.4 °F - 1.4 °F 67% 30.06 in 3.0 mi Calm Calm - N/A Snow Light Snow
9:08 PM 10.4 °F 4.0 °F 3.2 °F 73% 30.06 in 2.5 mi NNW 3.5 mph - N/A Snow Light Snow
9:28 PM 8.6 °F - 1.4 °F 73% 30.06 in 2.5 mi Calm Calm - N/A Snow Light Snow
9:48 PM 8.6 °F 2.0 °F 1.4 °F 73% 30.06 in 1.8 mi North 3.5 mph - N/A Snow Light Snow
10:09 PM 8.6 °F -1.3 °F 1.4 °F 73% 30.06 in 1.8 mi North 5.8 mph - N/A Snow Light Snow
10:28 PM 8.6 °F - 3.2 °F 79% 30.07 in 1.5 mi Calm Calm - N/A Snow Light Snow
10:48 PM 8.6 °F 2.0 °F 3.2 °F 79% 30.07 in 2.5 mi North 3.5 mph - N/A Snow Light Snow
11:08 PM 8.6 °F - 3.2 °F 79% 30.07 in 1.2 mi Calm Calm - N/A Snow Light Snow
11:28 PM 8.6 °F - 3.2 °F 79% 30.08 in 2.5 mi Calm Calm - N/A Snow Light Snow
11:48 PM 8.6 °F - 1.4 °F 73% 30.07 in 2.0 mi Calm Calm - N/A Snow Light Snow